When you browse on this site, cookies collect data to enhance your experience and personalize the content and advertising you see.
Visit our Privacy Policy to learn more. By continuing to use the site, you agree to this use of cookies and data.
  • en France
  • Liste des pays
  • À 7 jours
  • Température de l'eau
  • Carte satellitaire
  • Carte météo
  • Widgets météo
  • user-avatar
    Se connecter

    Météo par heure à Tome

    Ce jour, 19 Juillet, Vendredi

    Heure Température Précipitation Vent Pression Humidité
    00:00 +6°C° 0 mm 1 m/s 762 mmHg 94%
    01:00 +6°C° 0 mm 1 m/s 762 mmHg 93%
    02:00 +6°C° 0 mm 1 m/s 762 mmHg 92%
    03:00 +6°C° 0 mm 1 m/s 762 mmHg 90%
    04:00 +6°C° 0 mm 1 m/s 761 mmHg 89%
    05:00 +6°C° 0 mm 1 m/s 761 mmHg 89%
    06:00 +6°C° 0 mm 1 m/s 761 mmHg 89%
    07:00 +6°C° 0 mm 1 m/s 761 mmHg 90%
    08:00 +7°C° 0 mm 2 m/s 761 mmHg 84%
    09:00 +9°C° 0 mm 2 m/s 761 mmHg 79%
    10:00 +12°C° 0 mm 2 m/s 761 mmHg 73%
    11:00 +11°C° 0 mm 3 m/s 760 mmHg 71%
    12:00 +12°C° 0 mm 3 m/s 760 mmHg 69%
    13:00 +12°C° 0 mm 3 m/s 759 mmHg 67%
    14:00 +12°C° 0 mm 3 m/s 759 mmHg 70%
    15:00 +12°C° 0 mm 2 m/s 759 mmHg 74%
    16:00 +12°C° 0 mm 2 m/s 759 mmHg 78%
    17:00 +10°C° 0 mm 2 m/s 759 mmHg 83%
    18:00 +8°C° 0 mm 2 m/s 759 mmHg 89%
    19:00 +7°C° 0 mm 2 m/s 759 mmHg 94%
    20:00 +7°C° 0 mm 2 m/s 759 mmHg 94%
    21:00 +7°C° 0 mm 2 m/s 758 mmHg 93%
    22:00 +7°C° 0 mm 2 m/s 758 mmHg 93%
    23:00 +7°C° 0 mm 2 m/s 758 mmHg 93%

    Demain, 20 Juillet, Samedi

    Heure Température Précipitation Vent Pression Humidité
    00:00 +7°C° 0 mm 2 m/s 757 mmHg 92%
    01:00 +7°C° 0 mm 2 m/s 756 mmHg 92%
    02:00 +8°C° 0 mm 2 m/s 756 mmHg 91%
    03:00 +8°C° 0 mm 2 m/s 755 mmHg 91%
    04:00 +8°C° 0 mm 2 m/s 755 mmHg 91%
    05:00 +8°C° 0 mm 3 m/s 754 mmHg 92%
    06:00 +7°C° 0 mm 4 m/s 754 mmHg 94%
    07:00 +6°C° 0 mm 4 m/s 753 mmHg 95%
    08:00 +8°C° 0 mm 5 m/s 753 mmHg 90%
    09:00 +9°C° 0 mm 6 m/s 753 mmHg 84%
    10:00 +10°C° 0 mm 8 m/s 752 mmHg 79%
    11:00 +10°C° 0.8 mm 9 m/s 751 mmHg 83%
    12:00 +9°C° 0.8 mm 10 m/s 750 mmHg 87%
    13:00 +9°C° 0.8 mm 11 m/s 749 mmHg 92%
    14:00 +9°C° 3.2 mm 11 m/s 749 mmHg 92%
    15:00 +9°C° 3.2 mm 12 m/s 748 mmHg 93%
    16:00 +10°C° 3.2 mm 12 m/s 748 mmHg 94%
    17:00 +9°C° 3.8 mm 11 m/s 748 mmHg 92%
    18:00 +8°C° 3.8 mm 10 m/s 749 mmHg 90%
    19:00 +8°C° 3.8 mm 9 m/s 749 mmHg 88%
    20:00 +7°C° 0.1 mm 8 m/s 750 mmHg 86%
    21:00 +6°C° 0.1 mm 8 m/s 751 mmHg 83%
    22:00 +5°C° 0.1 mm 8 m/s 752 mmHg 81%
    23:00 +4°C° 0.1 mm 7 m/s 753 mmHg 82%

    Après-demain, 21 Juillet, Dimanche

    Heure Température Précipitation Vent Pression Humidité
    00:00 +4°C° 0.1 mm 7 m/s 753 mmHg 84%
    01:00 +4°C° 0.1 mm 6 m/s 754 mmHg 85%
    02:00 +4°C° 0.3 mm 6 m/s 754 mmHg 86%
    03:00 +4°C° 0.3 mm 6 m/s 755 mmHg 88%
    04:00 +3°C° 0.3 mm 6 m/s 755 mmHg 89%
    05:00 +3°C° 0.4 mm 5 m/s 756 mmHg 89%
    06:00 +5°C° 0.4 mm 5 m/s 756 mmHg 89%
    07:00 +5°C° 0.4 mm 5 m/s 757 mmHg 89%
    08:00 +6°C° 0.5 mm 5 m/s 757 mmHg 86%
    09:00 +7°C° 0.5 mm 5 m/s 758 mmHg 83%
    10:00 +8°C° 0.5 mm 5 m/s 759 mmHg 79%
    11:00 +8°C° 0.4 mm 5 m/s 759 mmHg 78%
    12:00 +8°C° 0.4 mm 5 m/s 759 mmHg 77%
    13:00 +9°C° 0.4 mm 5 m/s 759 mmHg 76%
    14:00 +8°C° 0.2 mm 4 m/s 759 mmHg 78%
    15:00 +8°C° 0.2 mm 4 m/s 760 mmHg 81%
    16:00 +7°C° 0.2 mm 4 m/s 760 mmHg 83%
    17:00 +7°C° 0.1 mm 3 m/s 761 mmHg 87%
    18:00 +4°C° 0.1 mm 3 m/s 761 mmHg 91%
    19:00 +4°C° 0.1 mm 2 m/s 762 mmHg 94%
    20:00 +4°C° 0 mm 2 m/s 762 mmHg 94%
    21:00 +5°C° 0 mm 1 m/s 763 mmHg 94%
    22:00 +5°C° 0 mm 1 m/s 763 mmHg 94%
    23:00 +4°C° 0 mm 1 m/s 763 mmHg 94%

    22 Juillet, Lundi

    Heure Température Précipitation Vent Pression Humidité
    00:00 +4°C° 0 mm 1 m/s 763 mmHg 94%
    01:00 +4°C° 0 mm 1 m/s 763 mmHg 94%
    02:00 +4°C° 0 mm 1 m/s 763 mmHg 94%
    03:00 +4°C° 0 mm 1 m/s 762 mmHg 94%
    04:00 +2°C° 0 mm 2 m/s 762 mmHg 94%
    05:00 +2°C° 0 mm 2 m/s 763 mmHg 94%
    06:00 +2°C° 0 mm 2 m/s 763 mmHg 94%
    07:00 +2°C° 0 mm 2 m/s 763 mmHg 94%
    08:00 +4°C° 0 mm 2 m/s 763 mmHg 87%
    09:00 +8°C° 0 mm 1 m/s 763 mmHg 80%
    10:00 +10°C° 0 mm 1 m/s 764 mmHg 73%
    11:00 +11°C° 0 mm 1 m/s 763 mmHg 68%
    12:00 +12°C° 0 mm 1 m/s 763 mmHg 64%
    13:00 +12°C° 0 mm 1 m/s 762 mmHg 59%
    14:00 +12°C° 0 mm 2 m/s 762 mmHg 64%
    15:00 +10°C° 0 mm 2 m/s 763 mmHg 70%
    16:00 +9°C° 0 mm 3 m/s 763 mmHg 75%
    17:00 +8°C° 0 mm 3 m/s 763 mmHg 82%
    18:00 +5°C° 0 mm 3 m/s 763 mmHg 88%
    19:00 +4°C° 0 mm 4 m/s 764 mmHg 95%
    20:00 +3°C° 0 mm 4 m/s 764 mmHg 94%
    21:00 +3°C° 0 mm 4 m/s 764 mmHg 92%
    22:00 +3°C° 0 mm 4 m/s 764 mmHg 91%
    23:00 +1°C° 0 mm 4 m/s 764 mmHg 91%

    23 Juillet, Mardi

    Heure Température Précipitation Vent Pression Humidité
    00:00 +1°C° 0 mm 4 m/s 764 mmHg 92%
    01:00 0°C° 0 mm 4 m/s 764 mmHg 92%
    02:00 0°C° 0 mm 4 m/s 764 mmHg 92%
    03:00 0°C° 0 mm 4 m/s 764 mmHg 91%
    04:00 0°C° 0 mm 4 m/s 764 mmHg 91%
    05:00 0°C° 0 mm 4 m/s 764 mmHg 91%
    06:00 -1°C° 0 mm 4 m/s 764 mmHg 91%
    07:00 -1°C° 0 mm 4 m/s 764 mmHg 91%
    08:00 +1°C° 0 mm 4 m/s 764 mmHg 82%
    09:00 +4°C° 0 mm 4 m/s 764 mmHg 74%
    10:00 +6°C° 0 mm 4 m/s 764 mmHg 65%
    11:00 +7°C° 0 mm 4 m/s 763 mmHg 61%
    12:00 +10°C° 0 mm 4 m/s 763 mmHg 56%
    13:00 +11°C° 0 mm 4 m/s 762 mmHg 51%
    14:00 +10°C° 0 mm 3 m/s 762 mmHg 54%
    15:00 +10°C° 0 mm 3 m/s 762 mmHg 57%
    16:00 +9°C° 0 mm 3 m/s 762 mmHg 60%
    17:00 +7°C° 0 mm 3 m/s 762 mmHg 67%
    18:00 +5°C° 0 mm 3 m/s 762 mmHg 74%
    19:00 +3°C° 0 mm 3 m/s 763 mmHg 82%
    20:00 +3°C° 0 mm 3 m/s 763 mmHg 85%
    21:00 +2°C° 0 mm 3 m/s 763 mmHg 88%
    22:00 +2°C° 0 mm 3 m/s 763 mmHg 92%
    23:00 +2°C° 0 mm 3 m/s 762 mmHg 91%

    24 Juillet, Mercredi

    Heure Température Précipitation Vent Pression Humidité
    00:00 +1°C° 0 mm 3 m/s 762 mmHg 91%
    01:00 +1°C° 0 mm 3 m/s 762 mmHg 90%
    02:00 +1°C° 0 mm 3 m/s 762 mmHg 92%
    03:00 +1°C° 0 mm 2 m/s 762 mmHg 94%
    04:00 +1°C° 0 mm 2 m/s 761 mmHg 95%
    05:00 +1°C° 0 mm 2 m/s 761 mmHg 95%
    06:00 -1°C° 0 mm 2 m/s 761 mmHg 96%
    07:00 -1°C° 0 mm 2 m/s 762 mmHg 96%
    08:00 +2°C° 0 mm 2 m/s 761 mmHg 85%
    09:00 +4°C° 0 mm 2 m/s 761 mmHg 74%
    10:00 +7°C° 0 mm 2 m/s 761 mmHg 64%
    11:00 +8°C° 0 mm 2 m/s 761 mmHg 58%
    12:00 +10°C° 0 mm 2 m/s 761 mmHg 53%
    13:00 +13°C° 0 mm 1 m/s 760 mmHg 47%
    14:00 +13°C° 0 mm 2 m/s 760 mmHg 52%
    15:00 +12°C° 0 mm 2 m/s 760 mmHg 57%
    16:00 +10°C° 0 mm 2 m/s 760 mmHg 63%
    17:00 +8°C° 0 mm 2 m/s 761 mmHg 70%
    18:00 +7°C° 0 mm 1 m/s 761 mmHg 77%
    19:00 +5°C° 0 mm 1 m/s 762 mmHg 84%
    20:00 +5°C° 0 mm 1 m/s 762 mmHg 84%
    21:00 +5°C° 0 mm 1 m/s 761 mmHg 84%
    22:00 +5°C° 0 mm 1 m/s 761 mmHg 84%
    23:00 +4°C° 0 mm 1 m/s 762 mmHg 85%
    Voir plus